Time,TemperatureF,DewpointF,PressureIn,WindDirection,WindDirectionDegrees,WindSpeedMPH,WindSpeedGustMPH,Humidity,HourlyPrecipIn,Conditions,Clouds,dailyrainin,SoftwareType,DateUTC
2013-07-16 09:21:00,81.0,72.0,30.26,North,-999,-999.0,-999.0,73,-99.99,,,-99.99,,2013-07-16 14:21:00,
2013-07-16 09:32:00,82.0,72.0,30.26,SSE,148,1.0,-999.0,72,-99.99,,,-99.99,,2013-07-16 14:32:00,
2013-07-16 09:43:00,82.0,72.0,30.26,SE,140,3.0,-999.0,71,-99.99,,,-99.99,,2013-07-16 14:43:00,
2013-07-16 09:52:00,83.0,71.0,30.26,South,177,1.0,-999.0,68,-99.99,,,-99.99,,2013-07-16 14:52:00,
2013-07-16 10:01:00,84.0,73.0,30.26,East,96,0.0,-999.0,69,-99.99,,,-99.99,,2013-07-16 15:01:00,
2013-07-16 10:11:00,84.0,72.0,30.26,SSE,155,1.0,-999.0,67,-99.99,,,-99.99,,2013-07-16 15:11:00,
2013-07-16 10:21:00,84.0,72.0,30.26,ESE,117,0.0,-999.0,67,-99.99,,,-99.99,,2013-07-16 15:21:00,
2013-07-16 10:32:00,85.0,72.0,30.26,SE,138,2.0,-999.0,66,-99.99,,,-99.99,,2013-07-16 15:32:00,
2013-07-16 10:43:00,85.0,72.0,30.26,South,172,1.0,-999.0,65,-99.99,,,-99.99,,2013-07-16 15:43:00,
2013-07-16 10:53:00,86.0,72.0,30.26,ESE,105,0.0,-999.0,63,-99.99,,,-99.99,,2013-07-16 15:53:00,
2013-07-16 11:01:00,86.0,72.0,30.26,South,176,0.0,-999.0,63,-99.99,,,-99.99,,2013-07-16 16:01:00,
2013-07-16 11:11:00,86.0,72.0,30.26,SE,126,0.0,-999.0,64,-99.99,,,-99.99,,2013-07-16 16:11:00,
2013-07-16 11:22:00,86.0,71.0,30.26,ESE,104,1.0,-999.0,62,-99.99,,,-99.99,,2013-07-16 16:22:00,
2013-07-16 11:32:00,87.0,72.0,30.26,East,94,0.0,-999.0,62,-99.99,,,-99.99,,2013-07-16 16:32:00,
2013-07-16 11:43:00,87.0,71.0,30.25,SE,140,1.0,-999.0,59,-99.99,,,-99.99,,2013-07-16 16:43:00,
2013-07-16 11:52:00,88.0,72.0,30.25,SE,140,1.0,-999.0,59,-99.99,,,-99.99,,2013-07-16 16:52:00,
2013-07-16 12:02:00,86.0,71.0,30.25,SE,136,1.0,-999.0,62,-99.99,,,-99.99,,2013-07-16 17:02:00,
2013-07-16 12:12:00,88.0,73.0,30.25,NE,34,2.0,-999.0,61,-99.99,,,-99.99,,2013-07-16 17:12:00,
2013-07-16 12:22:00,87.0,71.0,30.25,ENE,72,3.0,-999.0,60,-99.99,,,-99.99,,2013-07-16 17:22:00,
2013-07-16 12:32:00,88.0,72.0,30.25,ENE,65,4.0,-999.0,59,-99.99,,,-99.99,,2013-07-16 17:32:00,
2013-07-16 12:43:00,88.0,71.0,30.25,East,90,2.0,-999.0,58,-99.99,,,-99.99,,2013-07-16 17:43:00,
2013-07-16 12:53:00,89.0,73.0,30.25,ENE,77,1.0,-999.0,60,-99.99,,,-99.99,,2013-07-16 17:53:00,
2013-07-16 13:01:00,88.0,73.0,30.24,East,90,2.0,-999.0,61,-99.99,,,-99.99,,2013-07-16 18:01:00,
2013-07-16 13:11:00,88.0,72.0,30.24,East,98,3.0,-999.0,60,-99.99,,,-99.99,,2013-07-16 18:11:00,
2013-07-16 13:22:00,88.0,72.0,30.24,East,86,3.0,-999.0,60,-99.99,,,-99.99,,2013-07-16 18:22:00,
2013-07-16 13:32:00,89.0,72.0,30.24,ENE,63,2.0,-999.0,58,-99.99,,,-99.99,,2013-07-16 18:32:00,
2013-07-16 13:43:00,89.0,72.0,30.24,ENE,68,3.0,-999.0,58,-99.99,,,-99.99,,2013-07-16 18:43:00,
2013-07-16 13:52:00,89.0,72.0,30.23,NE,37,4.0,-999.0,57,-99.99,,,-99.99,,2013-07-16 18:52:00,
2013-07-16 14:01:00,90.0,72.0,30.23,ENE,57,3.0,-999.0,55,-99.99,,,-99.99,,2013-07-16 19:01:00,
2013-07-16 14:11:00,90.0,72.0,30.22,ENE,77,2.0,-999.0,55,-99.99,,,-99.99,,2013-07-16 19:11:00,
2013-07-16 14:22:00,90.0,72.0,30.22,ENE,69,4.0,-999.0,56,-99.99,,,-99.99,,2013-07-16 19:22:00,
2013-07-16 14:32:00,90.0,72.0,30.22,East,79,2.0,-999.0,56,-99.99,,,-99.99,,2013-07-16 19:32:00,
2013-07-16 14:43:00,90.0,72.0,30.22,ESE,109,3.0,-999.0,55,-99.99,,,-99.99,,2013-07-16 19:43:00,
2013-07-16 14:52:00,90.0,71.0,30.22,ENE,78,4.0,-999.0,54,-99.99,,,-99.99,,2013-07-16 19:52:00,
2013-07-16 15:03:00,91.0,71.0,30.22,NE,56,3.0,-999.0,52,-99.99,,,-99.99,,2013-07-16 20:03:00,
2013-07-16 15:11:00,91.0,71.0,30.22,ENE,67,2.0,-999.0,53,-99.99,,,-99.99,,2013-07-16 20:11:00,
2013-07-16 15:22:00,91.0,71.0,30.22,NE,49,2.0,-999.0,52,-99.99,,,-99.99,,2013-07-16 20:22:00,
2013-07-16 15:32:00,91.0,71.0,30.22,NE,45,3.0,-999.0,52,-99.99,,,-99.99,,2013-07-16 20:32:00,
2013-07-16 15:43:00,91.0,71.0,30.21,NE,50,4.0,-999.0,52,-99.99,,,-99.99,,2013-07-16 20:43:00,
2013-07-16 15:52:00,91.0,71.0,30.21,East,101,6.0,-999.0,53,-99.99,,,-99.99,,2013-07-16 20:52:00,
2013-07-16 16:01:00,91.0,72.0,30.21,East,97,6.0,-999.0,54,-99.99,,,-99.99,,2013-07-16 21:01:00,
2013-07-16 16:11:00,91.0,71.0,30.20,NE,56,4.0,-999.0,53,-99.99,,,-99.99,,2013-07-16 21:11:00,
2013-07-16 16:32:00,91.0,70.0,30.20,ENE,71,4.0,-999.0,50,-99.99,,,-99.99,,2013-07-16 21:32:00,
2013-07-16 16:43:00,91.0,70.0,30.20,ENE,65,5.0,-999.0,51,-99.99,,,-99.99,,2013-07-16 21:43:00,
2013-07-16 16:52:00,91.0,70.0,30.20,ESE,105,6.0,-999.0,51,-99.99,,,-99.99,,2013-07-16 21:52:00,
2013-07-16 17:01:00,91.0,70.0,30.20,ENE,76,3.0,-999.0,50,-99.99,,,-99.99,,2013-07-16 22:01:00,
2013-07-16 17:11:00,92.0,71.0,30.19,ESE,103,1.0,-999.0,50,-99.99,,,-99.99,,2013-07-16 22:11:00,
2013-07-16 17:22:00,92.0,71.0,30.19,ENE,69,4.0,-999.0,51,-99.99,,,-99.99,,2013-07-16 22:22:00,
2013-07-16 17:33:00,92.0,70.0,30.19,NE,45,6.0,-999.0,49,-99.99,,,-99.99,,2013-07-16 22:33:00,
2013-07-16 17:43:00,92.0,72.0,30.19,ENE,63,7.0,-999.0,52,-99.99,,,-99.99,,2013-07-16 22:43:00,
2013-07-16 17:52:00,92.0,71.0,30.19,East,83,6.0,-999.0,50,-99.99,,,-99.99,,2013-07-16 22:52:00,
2013-07-16 18:01:00,91.0,70.0,30.19,East,99,6.0,-999.0,50,-99.99,,,-99.99,,2013-07-16 23:01:00,
2013-07-16 18:11:00,91.0,71.0,30.19,East,82,5.0,-999.0,52,-99.99,,,-99.99,,2013-07-16 23:11:00,
2013-07-16 18:22:00,91.0,70.0,30.19,NE,56,4.0,-999.0,51,-99.99,,,-99.99,,2013-07-16 23:22:00,
2013-07-16 18:32:00,91.0,70.0,30.19,NE,55,5.0,-999.0,50,-99.99,,,-99.99,,2013-07-16 23:32:00,
2013-07-16 18:43:00,91.0,70.0,30.19,ENE,78,5.0,-999.0,51,-99.99,,,-99.99,,2013-07-16 23:43:00,
2013-07-16 18:52:00,91.0,70.0,30.19,ENE,61,4.0,-999.0,51,-99.99,,,-99.99,,2013-07-16 23:52:00,
2013-07-16 19:01:00,91.0,71.0,30.19,ESE,106,5.0,-999.0,52,-99.99,,,-99.99,,2013-07-17 00:01:00,
2013-07-16 19:11:00,91.0,70.0,30.19,East,83,4.0,-999.0,51,-99.99,,,-99.99,,2013-07-17 00:11:00,
2013-07-16 19:22:00,91.0,71.0,30.19,ENE,71,4.0,-999.0,52,-99.99,,,-99.99,,2013-07-17 00:22:00,
2013-07-16 19:33:00,90.0,71.0,30.19,ENE,78,4.0,-999.0,53,-99.99,,,-99.99,,2013-07-17 00:33:00,
2013-07-16 19:42:00,90.0,71.0,30.19,ENE,69,3.0,-999.0,54,-99.99,,,-99.99,,2013-07-17 00:42:00,
2013-07-16 19:52:00,89.0,71.0,30.19,ENE,74,3.0,-999.0,55,-99.99,,,-99.99,,2013-07-17 00:52:00,
2013-07-16 20:01:00,89.0,71.0,30.19,ENE,71,1.0,-999.0,56,-99.99,,,-99.99,,2013-07-17 01:01:00,
2013-07-16 20:11:00,89.0,72.0,30.19,ENE,71,0.0,-999.0,57,-99.99,,,-99.99,,2013-07-17 01:11:00,
2013-07-16 20:22:00,89.0,72.0,30.20,North,-999,-999.0,-999.0,57,-99.99,,,-99.99,,2013-07-17 01:22:00,